Year,Month,Day,Hour,Minute,Value (Times are PST for temperature in C)
2021,06,26,00,00,21.30
2021,06,26,00,01,21.30
2021,06,26,00,02,21.30
2021,06,26,00,03,21.20
2021,06,26,00,04,21.20
2021,06,26,00,05,21.20
2021,06,26,00,06,21.20
2021,06,26,00,07,21.20
2021,06,26,00,08,21.20
2021,06,26,00,09,21.10
2021,06,26,00,10,21.10
2021,06,26,00,11,21.10
2021,06,26,00,12,21.10
2021,06,26,00,13,21.10
2021,06,26,00,14,21.10
2021,06,26,00,15,21.00
2021,06,26,00,16,21.00
2021,06,26,00,17,21.00
2021,06,26,00,18,21.00
2021,06,26,00,19,21.00
2021,06,26,00,20,21.00
2021,06,26,00,21,20.90
2021,06,26,00,22,20.90
2021,06,26,00,23,20.90
2021,06,26,00,24,20.90
2021,06,26,00,25,20.90
2021,06,26,00,26,20.80
2021,06,26,00,27,20.80
2021,06,26,00,28,20.80
2021,06,26,00,29,20.80
2021,06,26,00,30,20.70
2021,06,26,00,31,20.70
2021,06,26,00,32,20.70
2021,06,26,00,33,20.70
2021,06,26,00,34,20.70
2021,06,26,00,35,20.60
2021,06,26,00,36,20.60
2021,06,26,00,37,20.60
2021,06,26,00,38,20.60
2021,06,26,00,39,20.60
2021,06,26,00,40,20.50
2021,06,26,00,41,20.50
2021,06,26,00,42,20.50
2021,06,26,00,43,20.50
2021,06,26,00,44,20.50
2021,06,26,00,45,20.50
2021,06,26,00,46,20.50
2021,06,26,00,47,20.50
2021,06,26,00,48,20.50
2021,06,26,00,49,20.40
2021,06,26,00,50,20.40
2021,06,26,00,51,20.40
2021,06,26,00,52,20.40
2021,06,26,00,53,20.40
2021,06,26,00,54,20.40
2021,06,26,00,55,20.40
2021,06,26,00,56,20.40
2021,06,26,00,57,20.40
2021,06,26,00,58,20.30
2021,06,26,00,59,20.30
2021,06,26,01,00,20.30
2021,06,26,01,01,20.30
2021,06,26,01,02,20.20
2021,06,26,01,03,20.20
2021,06,26,01,04,20.20
2021,06,26,01,05,20.20
2021,06,26,01,06,20.20
2021,06,26,01,07,20.20
2021,06,26,01,08,20.10
2021,06,26,01,09,20.10
2021,06,26,01,10,20.10
2021,06,26,01,11,20.10
2021,06,26,01,12,20.10
2021,06,26,01,13,20.00
2021,06,26,01,14,19.90
2021,06,26,01,15,19.90
2021,06,26,01,16,19.90
2021,06,26,01,17,19.90
2021,06,26,01,18,19.90
2021,06,26,01,19,19.90
2021,06,26,01,20,19.90
2021,06,26,01,21,19.90
2021,06,26,01,22,19.90
2021,06,26,01,23,19.90
2021,06,26,01,24,19.90
2021,06,26,01,25,19.90
2021,06,26,01,26,19.80
2021,06,26,01,27,19.80
2021,06,26,01,28,19.80
2021,06,26,01,29,19.80
2021,06,26,01,30,19.70
2021,06,26,01,31,19.60
2021,06,26,01,32,19.60
2021,06,26,01,33,19.50
2021,06,26,01,34,19.50
2021,06,26,01,35,19.40
2021,06,26,01,36,19.30
2021,06,26,01,37,19.30
2021,06,26,01,38,19.30
2021,06,26,01,39,19.20
2021,06,26,01,40,19.20
2021,06,26,01,41,19.20
2021,06,26,01,42,19.20
2021,06,26,01,43,19.20
2021,06,26,01,44,19.20
2021,06,26,01,45,19.20
2021,06,26,01,46,19.20
2021,06,26,01,47,19.20
2021,06,26,01,48,19.20
2021,06,26,01,49,19.20
2021,06,26,01,50,19.20
2021,06,26,01,51,19.20
2021,06,26,01,52,19.20
2021,06,26,01,53,19.20
2021,06,26,01,54,19.10
2021,06,26,01,55,19.10
2021,06,26,01,56,19.10
2021,06,26,01,57,19.10
2021,06,26,01,58,19.10
2021,06,26,01,59,19.10
2021,06,26,02,00,19.10
2021,06,26,02,01,19.10
2021,06,26,02,02,19.10
2021,06,26,02,03,19.10
2021,06,26,02,04,19.10
2021,06,26,02,05,19.10
2021,06,26,02,06,19.10
2021,06,26,02,07,19.10
2021,06,26,02,08,19.10
2021,06,26,02,09,19.10
2021,06,26,02,10,18.90
2021,06,26,02,11,18.90
2021,06,26,02,12,18.90
2021,06,26,02,13,18.90
2021,06,26,02,14,18.90
2021,06,26,02,15,18.90
2021,06,26,02,16,18.90
2021,06,26,02,17,18.90
2021,06,26,02,18,18.90
2021,06,26,02,19,18.90
2021,06,26,02,20,18.90
2021,06,26,02,21,18.90
2021,06,26,02,22,18.90
2021,06,26,02,23,18.90
2021,06,26,02,24,18.90
2021,06,26,02,25,18.90
2021,06,26,02,26,18.90
2021,06,26,02,27,18.90
2021,06,26,02,28,18.90
2021,06,26,02,29,18.90
2021,06,26,02,30,18.90
2021,06,26,02,31,18.90
2021,06,26,02,32,18.90
2021,06,26,02,33,18.90
2021,06,26,02,34,18.90
2021,06,26,02,35,18.90
2021,06,26,02,36,18.90
2021,06,26,02,37,18.90
2021,06,26,02,38,18.90
2021,06,26,02,39,18.90
2021,06,26,02,40,18.90
2021,06,26,02,41,18.90
2021,06,26,02,42,18.90
2021,06,26,02,43,18.90
2021,06,26,02,44,18.90
2021,06,26,02,45,18.90
2021,06,26,02,46,18.90
2021,06,26,02,47,18.90
2021,06,26,02,48,18.90
2021,06,26,02,49,18.90
2021,06,26,02,50,18.90
2021,06,26,02,51,18.90
2021,06,26,02,52,18.90
2021,06,26,02,53,18.90
2021,06,26,02,54,18.90
2021,06,26,02,55,18.90
2021,06,26,02,56,18.90
2021,06,26,02,57,18.90
2021,06,26,02,58,18.90
2021,06,26,02,59,19.00
2021,06,26,03,00,19.10
2021,06,26,03,01,19.10
2021,06,26,03,02,19.10
2021,06,26,03,03,19.00
2021,06,26,03,04,18.90
2021,06,26,03,05,18.90
2021,06,26,03,06,18.90
2021,06,26,03,07,18.90
2021,06,26,03,08,18.90
2021,06,26,03,09,18.80
2021,06,26,03,10,18.80
2021,06,26,03,11,18.80
2021,06,26,03,12,18.80
2021,06,26,03,13,18.80
2021,06,26,03,14,18.80
2021,06,26,03,15,18.80
2021,06,26,03,16,18.80
2021,06,26,03,17,18.80
2021,06,26,03,18,18.80
2021,06,26,03,19,18.80
2021,06,26,03,20,18.80
2021,06,26,03,21,18.80
2021,06,26,03,22,18.80
2021,06,26,03,23,18.80
2021,06,26,03,24,18.80
2021,06,26,03,25,18.80
2021,06,26,03,26,18.80
2021,06,26,03,27,18.80
2021,06,26,03,28,18.80
2021,06,26,03,29,18.80
2021,06,26,03,30,18.80
2021,06,26,03,31,18.80
2021,06,26,03,32,18.80
2021,06,26,03,33,18.80
2021,06,26,03,34,18.80
2021,06,26,03,35,18.80
2021,06,26,03,36,18.80
2021,06,26,03,37,18.70
2021,06,26,03,38,18.70
2021,06,26,03,39,18.70
2021,06,26,03,40,18.70
2021,06,26,03,41,18.60
2021,06,26,03,42,18.60
2021,06,26,03,43,18.60
2021,06,26,03,44,18.60
2021,06,26,03,45,18.50
2021,06,26,03,46,18.50
2021,06,26,03,47,18.50
2021,06,26,03,48,18.40
2021,06,26,03,49,18.40
2021,06,26,03,50,18.30
2021,06,26,03,51,18.30
2021,06,26,03,52,18.30
2021,06,26,03,53,18.30
2021,06,26,03,54,18.30
2021,06,26,03,55,18.30
2021,06,26,03,56,18.20
2021,06,26,03,57,18.20
2021,06,26,03,58,18.20
2021,06,26,03,59,18.20
2021,06,26,04,00,18.20
2021,06,26,04,01,18.20
2021,06,26,04,02,18.20
2021,06,26,04,03,18.20
2021,06,26,04,04,18.20
2021,06,26,04,05,18.20
2021,06,26,04,06,18.20
2021,06,26,04,07,18.20
2021,06,26,04,08,18.20
2021,06,26,04,09,18.20
2021,06,26,04,10,18.20
2021,06,26,04,11,18.20
2021,06,26,04,12,18.20
2021,06,26,04,13,18.10
2021,06,26,04,14,18.00
2021,06,26,04,15,17.90
2021,06,26,04,16,17.90
2021,06,26,04,17,17.80
2021,06,26,04,18,17.70
2021,06,26,04,19,17.70
2021,06,26,04,20,17.70
2021,06,26,04,21,17.60
2021,06,26,04,22,17.60
2021,06,26,04,23,17.60
2021,06,26,04,24,17.50
2021,06,26,04,25,17.50
2021,06,26,04,26,17.40
2021,06,26,04,27,17.40
2021,06,26,04,28,17.40
2021,06,26,04,29,17.30
2021,06,26,04,30,17.30
2021,06,26,04,31,17.30
2021,06,26,04,32,17.30
2021,06,26,04,33,17.30
2021,06,26,04,34,17.30
2021,06,26,04,35,17.20
2021,06,26,04,36,17.20
2021,06,26,04,37,17.20
2021,06,26,04,38,17.20
2021,06,26,04,39,17.20
2021,06,26,04,40,17.20
2021,06,26,04,41,17.20
2021,06,26,04,42,17.20
2021,06,26,04,43,17.20
2021,06,26,04,44,17.20
2021,06,26,04,45,17.20
2021,06,26,04,46,17.20
2021,06,26,04,47,17.20
2021,06,26,04,48,17.10
2021,06,26,04,49,17.10
2021,06,26,04,50,17.10
2021,06,26,04,51,17.10
2021,06,26,04,52,17.00
2021,06,26,04,53,17.00
2021,06,26,04,54,17.00
2021,06,26,04,55,17.00
2021,06,26,04,56,17.00
2021,06,26,04,57,17.00
2021,06,26,04,58,17.00
2021,06,26,04,59,17.00
2021,06,26,05,00,17.00
2021,06,26,05,01,17.00
2021,06,26,05,02,17.00
2021,06,26,05,03,17.00
2021,06,26,05,04,17.00
2021,06,26,05,05,17.00
2021,06,26,05,06,16.90
2021,06,26,05,07,16.90
2021,06,26,05,08,16.90
2021,06,26,05,09,16.90
2021,06,26,05,10,16.90
2021,06,26,05,11,16.90
2021,06,26,05,12,16.90
2021,06,26,05,13,16.90
2021,06,26,05,14,16.90
2021,06,26,05,15,16.90
2021,06,26,05,16,16.90
2021,06,26,05,17,16.90
2021,06,26,05,18,16.80
2021,06,26,05,19,16.80
2021,06,26,05,20,16.80
2021,06,26,05,21,16.80
2021,06,26,05,22,16.80
2021,06,26,05,23,16.80
2021,06,26,05,24,16.80
2021,06,26,05,25,16.80
2021,06,26,05,26,16.80
2021,06,26,05,27,16.80
2021,06,26,05,28,16.80
2021,06,26,05,29,16.80
2021,06,26,05,30,16.80
2021,06,26,05,31,16.80
2021,06,26,05,32,16.80
2021,06,26,05,33,16.80
2021,06,26,05,34,16.80
2021,06,26,05,35,16.80
2021,06,26,05,36,16.80
2021,06,26,05,37,16.90
2021,06,26,05,38,16.90
2021,06,26,05,39,16.90
2021,06,26,05,40,16.90
2021,06,26,05,41,16.90
2021,06,26,05,42,16.90
2021,06,26,05,43,16.90
2021,06,26,05,44,16.90
2021,06,26,05,45,16.90
2021,06,26,05,46,16.90
2021,06,26,05,47,16.80
2021,06,26,05,48,16.80
2021,06,26,05,49,16.80
2021,06,26,05,50,16.80
2021,06,26,05,51,16.80
2021,06,26,05,52,16.80
2021,06,26,05,53,16.80
2021,06,26,05,54,16.80
2021,06,26,05,55,16.80
2021,06,26,05,56,16.80
2021,06,26,05,57,16.80
2021,06,26,05,58,16.80
2021,06,26,05,59,16.90
2021,06,26,06,00,16.90
2021,06,26,06,01,16.90
2021,06,26,06,02,16.90
2021,06,26,06,03,16.90
2021,06,26,06,04,17.00
2021,06,26,06,05,17.00
2021,06,26,06,06,17.10
2021,06,26,06,07,17.10
2021,06,26,06,08,17.20
2021,06,26,06,09,17.20
2021,06,26,06,10,17.20
2021,06,26,06,11,17.30
2021,06,26,06,12,17.30
2021,06,26,06,13,17.30
2021,06,26,06,14,17.30
2021,06,26,06,15,17.30
2021,06,26,06,16,17.40
2021,06,26,06,17,17.40
2021,06,26,06,18,17.40
2021,06,26,06,19,17.50
2021,06,26,06,20,17.50
2021,06,26,06,21,17.60
2021,06,26,06,22,17.60
2021,06,26,06,23,17.70
2021,06,26,06,24,17.70
2021,06,26,06,25,17.80
2021,06,26,06,26,17.90
2021,06,26,06,27,17.90
2021,06,26,06,28,18.10
2021,06,26,06,29,18.10
2021,06,26,06,30,18.20
2021,06,26,06,31,18.30
2021,06,26,06,32,18.40
2021,06,26,06,33,18.50
2021,06,26,06,34,18.50
2021,06,26,06,35,18.60
2021,06,26,06,36,18.70
2021,06,26,06,37,18.80
2021,06,26,06,38,18.90
2021,06,26,06,39,18.90
2021,06,26,06,40,18.90
2021,06,26,06,41,19.10
2021,06,26,06,42,19.10
2021,06,26,06,43,19.10
2021,06,26,06,44,19.20
2021,06,26,06,45,19.30
2021,06,26,06,46,19.40
2021,06,26,06,47,19.40
2021,06,26,06,48,19.60
2021,06,26,06,49,19.60
2021,06,26,06,50,19.80
2021,06,26,06,51,19.90
2021,06,26,06,52,19.90
2021,06,26,06,53,20.10
2021,06,26,06,54,20.20
2021,06,26,06,55,20.30
2021,06,26,06,56,20.40
2021,06,26,06,57,20.50
2021,06,26,06,58,20.60
2021,06,26,06,59,20.70
2021,06,26,07,00,20.80
2021,06,26,07,01,21.00
2021,06,26,07,02,21.10
2021,06,26,07,03,21.20
2021,06,26,07,04,21.30
2021,06,26,07,05,21.30
2021,06,26,07,06,21.40
2021,06,26,07,07,21.50
2021,06,26,07,08,21.60
2021,06,26,07,09,21.70
2021,06,26,07,10,21.80
2021,06,26,07,11,21.90
2021,06,26,07,12,22.00
2021,06,26,07,13,22.00
2021,06,26,07,14,22.10
2021,06,26,07,15,22.20
2021,06,26,07,16,22.30
2021,06,26,07,17,22.40
2021,06,26,07,18,22.50
2021,06,26,07,19,22.60
2021,06,26,07,20,22.80
2021,06,26,07,21,22.90
2021,06,26,07,22,23.10
2021,06,26,07,23,23.20
2021,06,26,07,24,23.30
2021,06,26,07,25,23.50
2021,06,26,07,26,23.60
2021,06,26,07,27,23.70
2021,06,26,07,28,23.80
2021,06,26,07,29,23.90
2021,06,26,07,30,24.10
2021,06,26,07,31,24.20
2021,06,26,07,32,24.30
2021,06,26,07,33,24.50
2021,06,26,07,34,24.60
2021,06,26,07,35,24.70
2021,06,26,07,36,24.80
2021,06,26,07,37,24.90
2021,06,26,07,38,25.00
2021,06,26,07,39,25.10
2021,06,26,07,40,25.20
2021,06,26,07,41,25.30
2021,06,26,07,42,25.40
2021,06,26,07,43,25.50
2021,06,26,07,44,25.60
2021,06,26,07,45,25.80
2021,06,26,07,46,25.90
2021,06,26,07,47,26.00
2021,06,26,07,48,25.90
2021,06,26,07,49,25.40
2021,06,26,07,50,24.70
2021,06,26,07,51,24.00
2021,06,26,07,52,23.40
2021,06,26,07,53,22.80
2021,06,26,07,54,22.30
2021,06,26,07,55,21.90
2021,06,26,07,56,21.50
2021,06,26,07,57,21.20
2021,06,26,07,58,21.00
2021,06,26,07,59,20.80
2021,06,26,08,00,20.50
2021,06,26,08,01,20.20
2021,06,26,08,02,19.90
2021,06,26,08,03,19.70
2021,06,26,08,04,19.50
2021,06,26,08,05,19.40
2021,06,26,08,06,19.40
2021,06,26,08,07,19.30
2021,06,26,08,08,19.30
2021,06,26,08,09,19.30
2021,06,26,08,10,19.30
2021,06,26,08,11,19.40
2021,06,26,08,12,19.40
2021,06,26,08,13,19.50
2021,06,26,08,14,19.60
2021,06,26,08,15,19.60
2021,06,26,08,16,19.70
2021,06,26,08,17,19.80
2021,06,26,08,18,19.90
2021,06,26,08,19,19.90
2021,06,26,08,20,19.90
2021,06,26,08,21,19.90
2021,06,26,08,22,20.00
2021,06,26,08,23,20.10
2021,06,26,08,24,20.10
2021,06,26,08,25,20.10
2021,06,26,08,26,20.10
2021,06,26,08,27,20.10
2021,06,26,08,28,20.20
2021,06,26,08,29,20.20
2021,06,26,08,30,20.20
2021,06,26,08,31,20.10
2021,06,26,08,32,20.10
2021,06,26,08,33,20.20
2021,06,26,08,34,20.20
2021,06,26,08,35,20.30
2021,06,26,08,36,20.40
2021,06,26,08,37,20.50
2021,06,26,08,38,20.70
2021,06,26,08,39,20.80
2021,06,26,08,40,21.00
2021,06,26,08,41,21.10
2021,06,26,08,42,21.30
2021,06,26,08,43,21.30
2021,06,26,08,44,21.50
2021,06,26,08,45,21.60
2021,06,26,08,46,21.70
2021,06,26,08,47,21.80
2021,06,26,08,48,21.90
2021,06,26,08,49,22.00
2021,06,26,08,50,22.10
2021,06,26,08,51,22.20
2021,06,26,08,52,22.20
2021,06,26,08,53,22.40
2021,06,26,08,54,22.50
2021,06,26,08,55,22.60
2021,06,26,08,56,22.70
2021,06,26,08,57,22.90
2021,06,26,08,58,22.90
2021,06,26,08,59,23.10
2021,06,26,09,00,23.10
2021,06,26,09,01,23.20
2021,06,26,09,02,23.30
2021,06,26,09,03,23.20
2021,06,26,09,04,23.10
2021,06,26,09,05,23.00
2021,06,26,09,06,22.90
2021,06,26,09,07,22.80
2021,06,26,09,08,22.80
2021,06,26,09,09,22.60
2021,06,26,09,10,22.50
2021,06,26,09,11,22.40
2021,06,26,09,12,22.20
2021,06,26,09,13,22.00
2021,06,26,09,14,22.00
2021,06,26,09,15,21.90
2021,06,26,09,16,21.90
2021,06,26,09,17,21.80
2021,06,26,09,18,21.70
2021,06,26,09,19,21.60
2021,06,26,09,20,21.50
2021,06,26,09,21,21.30
2021,06,26,09,22,21.10
2021,06,26,09,23,21.00
2021,06,26,09,24,20.80
2021,06,26,09,25,20.80
2021,06,26,09,26,20.80
2021,06,26,09,27,20.80
2021,06,26,09,28,21.00
2021,06,26,09,29,21.00
2021,06,26,09,30,21.10
2021,06,26,09,31,21.30
2021,06,26,09,32,21.30
2021,06,26,09,33,21.30
2021,06,26,09,34,21.40
2021,06,26,09,35,21.50
2021,06,26,09,36,21.60
2021,06,26,09,37,21.70
2021,06,26,09,38,21.80
2021,06,26,09,39,22.00
2021,06,26,09,40,22.10
2021,06,26,09,41,22.30
2021,06,26,09,42,22.40
2021,06,26,09,43,22.60
2021,06,26,09,44,22.70
2021,06,26,09,45,22.80
2021,06,26,09,46,22.90
2021,06,26,09,47,23.10
2021,06,26,09,48,23.20
2021,06,26,09,49,23.30
2021,06,26,09,50,23.50
2021,06,26,09,51,23.70
2021,06,26,09,52,23.80
2021,06,26,09,53,23.90
2021,06,26,09,54,24.10
2021,06,26,09,55,24.20
2021,06,26,09,56,24.30
2021,06,26,09,57,24.40
2021,06,26,09,58,24.50
2021,06,26,09,59,24.60
2021,06,26,10,00,24.80
2021,06,26,10,01,24.90
2021,06,26,10,02,25.00
2021,06,26,10,03,25.20
2021,06,26,10,04,25.30
2021,06,26,10,05,25.40
2021,06,26,10,06,25.40
2021,06,26,10,07,25.50
2021,06,26,10,08,25.60
2021,06,26,10,09,25.80
2021,06,26,10,10,25.90
2021,06,26,10,11,26.00
2021,06,26,10,12,26.10
2021,06,26,10,13,26.30
2021,06,26,10,14,26.40
2021,06,26,10,15,26.50
2021,06,26,10,16,26.70
2021,06,26,10,17,26.90
2021,06,26,10,18,27.10
2021,06,26,10,19,27.30
2021,06,26,10,20,27.50
2021,06,26,10,21,27.80
2021,06,26,10,22,28.10
2021,06,26,10,23,28.30
2021,06,26,10,24,28.60
2021,06,26,10,25,28.80
2021,06,26,10,26,28.90
2021,06,26,10,27,29.00
2021,06,26,10,28,29.10
2021,06,26,10,29,29.30
2021,06,26,10,30,29.50
2021,06,26,10,31,29.70
2021,06,26,10,32,29.80
2021,06,26,10,33,29.90
2021,06,26,10,34,30.10
2021,06,26,10,35,30.30
2021,06,26,10,36,30.40
2021,06,26,10,37,30.60
2021,06,26,10,38,30.70
2021,06,26,10,39,30.70
2021,06,26,10,40,30.80
2021,06,26,10,41,30.90
2021,06,26,10,42,31.00
2021,06,26,10,43,31.00
2021,06,26,10,44,30.90
2021,06,26,10,45,30.80
2021,06,26,10,46,30.80
2021,06,26,10,47,30.80
2021,06,26,10,48,30.80
2021,06,26,10,49,30.80
2021,06,26,10,50,30.80
2021,06,26,10,51,30.80
2021,06,26,10,52,30.70
2021,06,26,10,53,30.70
2021,06,26,10,54,30.70
2021,06,26,10,55,30.80
2021,06,26,10,56,30.90
2021,06,26,10,57,31.10
2021,06,26,10,58,31.10
2021,06,26,10,59,31.10
2021,06,26,11,00,31.00
2021,06,26,11,01,31.00
2021,06,26,11,02,31.10
2021,06,26,11,03,31.10
2021,06,26,11,04,31.10
2021,06,26,11,05,31.20
2021,06,26,11,06,31.30
2021,06,26,11,07,31.40
2021,06,26,11,08,31.30
2021,06,26,11,09,31.40
2021,06,26,11,10,31.40
2021,06,26,11,11,31.40
2021,06,26,11,12,31.40
2021,06,26,11,13,31.50
2021,06,26,11,14,31.60
2021,06,26,11,15,31.60
2021,06,26,11,16,31.60
2021,06,26,11,17,31.70
2021,06,26,11,18,31.70
2021,06,26,11,19,31.90
2021,06,26,11,20,31.90
2021,06,26,11,21,31.90
2021,06,26,11,22,31.80
2021,06,26,11,23,31.90
2021,06,26,11,24,31.90
2021,06,26,11,25,31.90
2021,06,26,11,26,31.90
2021,06,26,11,27,31.80
2021,06,26,11,28,31.80
2021,06,26,11,29,31.80
2021,06,26,11,30,31.80
2021,06,26,11,31,31.70
2021,06,26,11,32,31.80
2021,06,26,11,33,31.80
2021,06,26,11,34,32.00
2021,06,26,11,35,32.00
2021,06,26,11,36,32.00
2021,06,26,11,37,32.10
2021,06,26,11,38,32.10
2021,06,26,11,39,32.20
2021,06,26,11,40,32.20
2021,06,26,11,41,32.20
2021,06,26,11,42,32.20
2021,06,26,11,43,32.30
2021,06,26,11,44,32.30
2021,06,26,11,45,32.30
2021,06,26,11,46,32.30
2021,06,26,11,47,32.30
2021,06,26,11,48,32.40
2021,06,26,11,49,32.40
2021,06,26,11,50,32.40
2021,06,26,11,51,32.40
2021,06,26,11,52,32.40
2021,06,26,11,53,32.30
2021,06,26,11,54,32.40
2021,06,26,11,55,32.50
2021,06,26,11,56,32.50
2021,06,26,11,57,32.50
2021,06,26,11,58,32.50
2021,06,26,11,59,32.50
2021,06,26,12,00,32.50
2021,06,26,12,01,32.40
2021,06,26,12,02,32.40
2021,06,26,12,03,32.50
2021,06,26,12,04,32.40
2021,06,26,12,05,32.40
2021,06,26,12,06,32.50
2021,06,26,12,07,32.50
2021,06,26,12,08,32.50
2021,06,26,12,09,32.60
2021,06,26,12,10,32.60
2021,06,26,12,11,32.80
2021,06,26,12,12,32.90
2021,06,26,12,13,33.00
2021,06,26,12,14,33.10
2021,06,26,12,15,33.20
2021,06,26,12,16,33.20
2021,06,26,12,17,33.30
2021,06,26,12,18,33.30
2021,06,26,12,19,33.20
2021,06,26,12,20,33.10
2021,06,26,12,21,33.10
2021,06,26,12,22,33.10
2021,06,26,12,23,33.10
2021,06,26,12,24,33.20
2021,06,26,12,25,33.30
2021,06,26,12,26,33.40
2021,06,26,12,27,33.50
2021,06,26,12,28,33.50
2021,06,26,12,29,33.50
2021,06,26,12,30,33.50
2021,06,26,12,31,33.60
2021,06,26,12,32,33.60
2021,06,26,12,33,33.60
2021,06,26,12,34,33.60
2021,06,26,12,35,33.60
2021,06,26,12,36,33.50
2021,06,26,12,37,33.50
2021,06,26,12,38,33.50
2021,06,26,12,39,33.50
2021,06,26,12,40,33.50
2021,06,26,12,41,33.50
2021,06,26,12,42,33.50
2021,06,26,12,43,33.40
2021,06,26,12,44,33.50
2021,06,26,12,45,33.50
2021,06,26,12,46,33.50
2021,06,26,12,47,33.50
2021,06,26,12,48,33.50
2021,06,26,12,49,33.60
2021,06,26,12,50,33.70
2021,06,26,12,51,33.60
2021,06,26,12,52,33.40
2021,06,26,12,53,33.10
2021,06,26,12,54,32.90
2021,06,26,12,55,32.80
2021,06,26,12,56,32.60
2021,06,26,12,57,32.60
2021,06,26,12,58,32.60
2021,06,26,12,59,32.50
2021,06,26,13,00,32.40
2021,06,26,13,01,32.20
2021,06,26,13,02,32.00
2021,06,26,13,03,31.70
2021,06,26,13,04,31.40
2021,06,26,13,05,31.20
2021,06,26,13,06,31.00
2021,06,26,13,07,30.70
2021,06,26,13,08,30.40
2021,06,26,13,09,30.20
2021,06,26,13,10,30.00
2021,06,26,13,11,29.90
2021,06,26,13,12,29.90
2021,06,26,13,13,29.90
2021,06,26,13,14,29.90
2021,06,26,13,15,29.90
2021,06,26,13,16,29.70
2021,06,26,13,17,29.50
2021,06,26,13,18,29.30
2021,06,26,13,19,29.10
2021,06,26,13,20,28.90
2021,06,26,13,21,28.90
2021,06,26,13,22,28.80
2021,06,26,13,23,28.70
2021,06,26,13,24,28.60
2021,06,26,13,25,28.40
2021,06,26,13,26,28.50
2021,06,26,13,27,28.60
2021,06,26,13,28,28.50
2021,06,26,13,29,28.30
2021,06,26,13,30,28.20
2021,06,26,13,31,28.00
2021,06,26,13,32,27.80
2021,06,26,13,33,27.70
2021,06,26,13,34,27.60
2021,06,26,13,35,27.50
2021,06,26,13,36,27.50
2021,06,26,13,37,27.50
2021,06,26,13,38,27.60
2021,06,26,13,39,27.50
2021,06,26,13,40,27.60
2021,06,26,13,41,27.70
2021,06,26,13,42,27.80
2021,06,26,13,43,27.90
2021,06,26,13,44,28.00
2021,06,26,13,45,28.00
2021,06,26,13,46,28.10
2021,06,26,13,47,28.30
2021,06,26,13,48,28.50
2021,06,26,13,49,28.70
2021,06,26,13,50,28.90
2021,06,26,13,51,29.10
2021,06,26,13,52,29.30
2021,06,26,13,53,29.40
2021,06,26,13,54,29.50
2021,06,26,13,55,29.60
2021,06,26,13,56,29.70
2021,06,26,13,57,29.80
2021,06,26,13,58,30.00
2021,06,26,13,59,30.20
2021,06,26,14,00,30.30
2021,06,26,14,01,30.30
2021,06,26,14,02,30.30
2021,06,26,14,03,30.30
2021,06,26,14,04,30.20
2021,06,26,14,05,30.10
2021,06,26,14,06,29.90
2021,06,26,14,07,29.90
2021,06,26,14,08,30.00
2021,06,26,14,09,30.10
2021,06,26,14,10,30.20
2021,06,26,14,11,30.40
2021,06,26,14,12,30.30
2021,06,26,14,13,30.30
2021,06,26,14,14,30.30
2021,06,26,14,15,30.20
2021,06,26,14,16,30.10
2021,06,26,14,17,30.10
2021,06,26,14,18,30.10
2021,06,26,14,19,30.10
2021,06,26,14,20,30.00
2021,06,26,14,21,29.90
2021,06,26,14,22,29.90
2021,06,26,14,23,30.00
2021,06,26,14,24,30.10
2021,06,26,14,25,30.10
2021,06,26,14,26,30.00
2021,06,26,14,27,30.00
2021,06,26,14,28,30.10
2021,06,26,14,29,30.10
2021,06,26,14,30,30.10
2021,06,26,14,31,30.20
2021,06,26,14,32,30.30
2021,06,26,14,33,30.30
2021,06,26,14,34,30.20
2021,06,26,14,35,30.10
2021,06,26,14,36,30.10
2021,06,26,14,37,30.20
2021,06,26,14,38,30.30
2021,06,26,14,39,30.20
2021,06,26,14,40,30.20
2021,06,26,14,41,30.30
2021,06,26,14,42,30.30
2021,06,26,14,43,30.40
2021,06,26,14,44,30.40
2021,06,26,14,45,30.40
2021,06,26,14,46,30.60
2021,06,26,14,47,30.50
2021,06,26,14,48,30.50
2021,06,26,14,49,30.60
2021,06,26,14,50,30.60
2021,06,26,14,51,30.70
2021,06,26,14,52,30.80
2021,06,26,14,53,30.90
2021,06,26,14,54,31.10
2021,06,26,14,55,31.20
2021,06,26,14,56,31.30
2021,06,26,14,57,31.30
2021,06,26,14,58,31.40
2021,06,26,14,59,31.30
2021,06,26,15,00,31.30
2021,06,26,15,01,31.30
2021,06,26,15,02,31.20
2021,06,26,15,03,31.20
2021,06,26,15,04,31.10
2021,06,26,15,05,30.80
2021,06,26,15,06,30.70
2021,06,26,15,07,30.50
2021,06,26,15,08,30.40
2021,06,26,15,09,30.40
2021,06,26,15,10,30.40
2021,06,26,15,11,30.40
2021,06,26,15,12,30.40
2021,06,26,15,13,30.40
2021,06,26,15,14,30.60
2021,06,26,15,15,30.60
2021,06,26,15,16,30.70
2021,06,26,15,17,30.90
2021,06,26,15,18,31.10
2021,06,26,15,19,31.10
2021,06,26,15,20,31.30
2021,06,26,15,21,31.40
2021,06,26,15,22,31.60
2021,06,26,15,23,31.60
2021,06,26,15,24,31.70
2021,06,26,15,25,31.80
2021,06,26,15,26,31.80
2021,06,26,15,27,31.70
2021,06,26,15,28,31.70
2021,06,26,15,29,31.60
2021,06,26,15,30,31.50
2021,06,26,15,31,31.40
2021,06,26,15,32,31.30
2021,06,26,15,33,31.20
2021,06,26,15,34,31.30
2021,06,26,15,35,31.40
2021,06,26,15,36,31.40
2021,06,26,15,37,31.40
2021,06,26,15,38,31.20
2021,06,26,15,39,31.10
2021,06,26,15,40,31.00
2021,06,26,15,41,30.90
2021,06,26,15,42,30.70
2021,06,26,15,43,30.40
2021,06,26,15,44,30.20
2021,06,26,15,45,29.90
2021,06,26,15,46,29.80
2021,06,26,15,47,29.60
2021,06,26,15,48,29.50
2021,06,26,15,49,29.50
2021,06,26,15,50,29.60
2021,06,26,15,51,29.50
2021,06,26,15,52,29.50
2021,06,26,15,53,29.50
2021,06,26,15,54,29.50
2021,06,26,15,55,29.40
2021,06,26,15,56,29.40
2021,06,26,15,57,29.40
2021,06,26,15,58,29.50
2021,06,26,15,59,29.60
2021,06,26,16,00,29.70
2021,06,26,16,01,29.70
2021,06,26,16,02,29.80
2021,06,26,16,03,29.70
2021,06,26,16,04,29.70
2021,06,26,16,05,29.70
2021,06,26,16,06,29.80
2021,06,26,16,07,29.90
2021,06,26,16,08,30.10
2021,06,26,16,09,30.20
2021,06,26,16,10,30.40
2021,06,26,16,11,30.60
2021,06,26,16,12,30.70
2021,06,26,16,13,30.80
2021,06,26,16,14,30.90
2021,06,26,16,15,31.00
2021,06,26,16,16,31.00
2021,06,26,16,17,31.00
2021,06,26,16,18,30.90
2021,06,26,16,19,30.80
2021,06,26,16,20,30.80
2021,06,26,16,21,30.80
2021,06,26,16,22,30.70
2021,06,26,16,23,30.60
2021,06,26,16,24,30.60
2021,06,26,16,25,30.40
2021,06,26,16,26,30.30
2021,06,26,16,27,30.20
2021,06,26,16,28,30.00
2021,06,26,16,29,29.80
2021,06,26,16,30,29.70
2021,06,26,16,31,29.70
2021,06,26,16,32,29.60
2021,06,26,16,33,29.50
2021,06,26,16,34,29.30
2021,06,26,16,35,29.30
2021,06,26,16,36,29.30
2021,06,26,16,37,29.40
2021,06,26,16,38,29.40
2021,06,26,16,39,29.30
2021,06,26,16,40,29.40
2021,06,26,16,41,29.30
2021,06,26,16,42,29.30
2021,06,26,16,43,29.20
2021,06,26,16,44,29.10
2021,06,26,16,45,28.90
2021,06,26,16,46,28.90
2021,06,26,16,47,28.90
2021,06,26,16,48,28.90
2021,06,26,16,49,28.90
2021,06,26,16,50,29.00
2021,06,26,16,51,29.10
2021,06,26,16,52,29.20
2021,06,26,16,53,29.30
2021,06,26,16,54,29.40
2021,06,26,16,55,29.50
2021,06,26,16,56,29.50
2021,06,26,16,57,29.60
2021,06,26,16,58,29.60
2021,06,26,16,59,29.60
2021,06,26,17,00,29.60
2021,06,26,17,01,29.60
2021,06,26,17,02,29.70
2021,06,26,17,03,29.80
2021,06,26,17,04,29.90
2021,06,26,17,05,30.00
2021,06,26,17,06,30.10
2021,06,26,17,07,30.30
2021,06,26,17,08,30.30
2021,06,26,17,09,30.40
2021,06,26,17,10,30.60
2021,06,26,17,11,30.70
2021,06,26,17,12,30.70
2021,06,26,17,13,30.70
2021,06,26,17,14,30.70
2021,06,26,17,15,30.70
2021,06,26,17,16,30.80
2021,06,26,17,17,30.90
2021,06,26,17,18,30.90
2021,06,26,17,19,31.00